Change the Weather History Date:

Thursday, March 28, 2013

  Actual Average Record
Temperature  
Mean Temperature 55 °F 47 °F  
Max Temperature 69 °F 60 °F 77 °F (1986)
Min Temperature 41 °F 34 °F 11 °F (1975)
Degree Days  
Heating Degree Days 10 18  
Month to date heating degree days 618 599  
Since 1 July heating degree days 5381 4978  
Cooling Degree Days 0 0  
Month to date cooling degree days 0 0  
Year to date cooling degree days 0 0  
Growing Degree Days 5 (Base 50)    
Moisture  
Dew Point 18 °F    
Average Humidity 28    
Maximum Humidity 43    
Minimum Humidity 13    
Precipitation  
Precipitation 0.00 in 0.04 in 0.78 in (1992)
Month to date precipitation 0.35 0.82  
Year to date precipitation 1.35 1.94  
Snow  
Snow 0.00 in 0.10 in 4.30 in (1949)
Month to date snowfall T 2.4  
Since 1 July snowfall 20.0 17.9  
Snow Depth 0.00 in    
Sea Level Pressure  
Sea Level Pressure 29.93 in    
Wind  
Wind Speed 7 mph (ENE)    
Max Wind Speed 16 mph    
Max Gust Speed 20 mph    
Visibility 10 miles    
Events      
T = Trace of Precipitation, MM = Missing Value Source: NWS Daily Summary

Daily Weather History Graph

Daily Weather History Graph

Search for Another Location

Airport or City:

Trip Planner

Search our weather history database for the weather conditions in past years. The results will help you decide how hot, cold, wet, or windy it might be!

Date:

Astronomy

Mar. 28, 2013 Rise Set
Actual Time 7:04 AM MDT 7:34 PM MDT
Civil Twilight 6:37 AM MDT 8:01 PM MDT
Nautical Twilight 6:06 AM MDT 8:32 PM MDT
Astronomical Twilight 5:33 AM MDT 9:05 PM MDT
Moon 9:28 PM MDT 7:35 AM MDT
Length of Visible Light 13h 23m
Length of Day
12h 29m
Full, 98% of the Moon is Illuminated
Mar 28
Full
Apr 2
Last Quarter
Apr 10
New
Apr 18
First Quarter
Apr 25
Full

Hourly Weather History & Observations

Time (MDT) Temp. Windchill Dew Point Humidity Pressure Visibility Wind Dir Wind Speed Gust Speed Precip Events Conditions
12:53 AM 43.0 °F 37.7 °F 17.1 °F 35% 29.92 in 10.0 mi SE 9.2 mph - N/A   Clear
1:53 AM 46.0 °F 40.2 °F 18.0 °F 33% 29.91 in 10.0 mi East 12.7 mph - N/A   Partly Cloudy
2:53 AM 48.0 °F - 18.0 °F 30% 29.90 in 10.0 mi East 10.4 mph - N/A   Clear
3:53 AM 45.0 °F 39.7 °F 19.0 °F 36% 29.90 in 10.0 mi ESE 10.4 mph - N/A   Mostly Cloudy
4:53 AM 42.1 °F 36.6 °F 19.0 °F 40% 29.92 in 10.0 mi ESE 9.2 mph - N/A   Clear
5:53 AM 41.0 °F 38.0 °F 19.0 °F 41% 29.94 in 10.0 mi East 4.6 mph - N/A   Partly Cloudy
6:53 AM 43.0 °F 39.5 °F 19.9 °F 40% 29.95 in 10.0 mi ESE 5.8 mph - N/A   Partly Cloudy
7:53 AM 43.0 °F 41.3 °F 21.0 °F 42% 29.98 in 10.0 mi SE 3.5 mph - N/A   Scattered Clouds
8:53 AM 48.0 °F - 21.9 °F 36% 29.99 in 10.0 mi ESE 10.4 mph - N/A   Scattered Clouds
9:53 AM 54.0 °F - 21.9 °F 29% 29.99 in 10.0 mi SSE 6.9 mph - N/A   Partly Cloudy
10:53 AM 59.0 °F - 18.0 °F 20% 29.97 in 10.0 mi Calm Calm - N/A   Partly Cloudy
11:53 AM 61.0 °F - 18.0 °F 19% 29.96 in 10.0 mi Calm Calm - N/A   Partly Cloudy
12:53 PM 64.9 °F - 16.0 °F 15% 29.95 in 10.0 mi West 9.2 mph - N/A   Scattered Clouds
1:53 PM 66.0 °F - 17.1 °F 15% 29.93 in 10.0 mi WNW 8.1 mph - N/A   Clear
2:53 PM 66.9 °F - 17.1 °F 15% 29.89 in 10.0 mi WNW 8.1 mph 16.1 mph N/A   Clear
3:53 PM 66.9 °F - 16.0 °F 14% 29.88 in 10.0 mi NW 6.9 mph - N/A   Clear
4:53 PM 68.0 °F - 16.0 °F 14% 29.88 in 10.0 mi NNW 8.1 mph - N/A   Clear
5:53 PM 66.9 °F - 17.1 °F 15% 29.89 in 10.0 mi North 6.9 mph - N/A   Clear
6:53 PM 64.0 °F - 15.1 °F 15% 29.90 in 10.0 mi NW 13.8 mph - N/A   Clear
7:53 PM 57.9 °F - 17.1 °F 20% 29.92 in 10.0 mi NNW 6.9 mph - N/A   Clear
8:53 PM 54.0 °F - 16.0 °F 22% 29.94 in 10.0 mi NE 3.5 mph - N/A   Clear
9:53 PM 50.0 °F - 16.0 °F 26% 29.95 in 10.0 mi Calm Calm - N/A   Clear
10:53 PM 53.1 °F - 18.0 °F 25% 29.94 in 10.0 mi ENE 5.8 mph - N/A   Mostly Cloudy
11:53 PM 51.1 °F - 17.1 °F 26% 29.96 in 10.0 mi East 4.6 mph - N/A   Clear